Terminal Aerodrome Forecast
Issued by NWS

Home | Current Version | Previous Version | Graphics & Text | Print | Product List | Glossary On
Versions: 1 2 3 4 5 6 7 8 9 10 11 12 13 14 15 16 17 18 19 20 21 22 23 24 25 26 27 28 29 30 31 32 33 34 35 36 37 38 39 40 41 42 43 44 45 46 47 48 49 50
000
FTUS43 KLOT 252100 AAC
TAFGYY
TAF AMD
KGYY 252159Z 2522/2618 04008KT 3SM -SN OVC020
     FM252300 03009KT 2SM -SN OVC020
     FM260000 03010KT 2SM -SN BR OVC020
      TEMPO 2601/2605 1 1/2SM -SN OVC015
     FM260800 03013G18KT 3SM -SN BKN014 OVC020=

USA.gov is the U.S. government's official web portal to all federal, state and local government web resources and services.